This demonstration page uses our WeatherBlox Daily Observations layout. Learn more.

Left ArrowRight Arrow

34.74481, -87.66753

Hourly Observations for June 22, 2019

Temp ( °F °C ) Dew Point ( °F °C ) Humidity (%) Winds ( mph kmh ) Pressure ( in mb ) Visibility ( mi km ) Precip ( " mm )
12:53 am 00:53 Clear 73 22.8 65 18.3 76 76 ESE 9 15 29.98 1015 10 16 0.00 0.00
1:53 am 01:53 Clear 73 22.8 65 18.3 76 76 S 9 15 29.97 1015 10 16 0.00 0.00
2:53 am 02:53 Clear 74 23.3 65 18.3 74 74 SSE 7 11 29.95 1014 10 16 0.00 0.00
3:53 am 03:53 Clear 74 23.3 65 18.3 74 74 SSW 6 9 29.97 1015 10 16 0.00 0.00
4:53 am 04:53 Clear 74 23.3 65 18.3 74 74 Calm 29.98 1015 10 16 0.00 0.00
5:53 am 05:53 Sunny 73 22.8 67 19.4 81 81 Calm 30.00 1016 10 16 0.00 0.00
6:53 am 06:53 Sunny 73 22.8 67 19.4 81 81 Calm 30.03 1017 10 16 0.00 0.00
7:12 am 07:12 Mostly Cloudy 74 23.3 67 19.4 79 79 SSW 3 6 30.04 1017 10 16 0.00 0.00
7:35 am 07:35 Partly Cloudy 75 23.9 67 19.4 76 76 Calm 30.06 1018 10 16 0.00 0.00
7:53 am 07:53 Sunny 76 24.4 68 20 77 77 S 3 6 30.06 1018 10 16 0.00 0.00
8:53 am 08:53 Partly Cloudy 81 27.2 69 20.6 67 67 SSW 6 9 30.05 1018 10 16 0.00 0.00
9:00 am 09:00 Mostly Cloudy 81 27.2 70 21.1 69 69 SW 8 13 30.05 1018 10 16 0.00 0.00
10:06 am 10:06 Partly Cloudy 85 29.4 73 22.8 68 68 W 16 26 30.06 1018 10 16 0.00 0.00
10:22 am 10:22 Mostly Cloudy 85 29.4 73 22.8 68 68 W 14 22 30.07 1018 10 16 0.00 0.00
10:53 am 10:53 Partly Cloudy 88 31.1 74 23.3 63 63 W 12 19 30.08 1019 10 16 0.00 0.00
11:01 am 11:01 Mostly Cloudy 88 31.1 74 23.3 63 63 NW 10 17 30.07 1018 10 16 0.00 0.00
11:53 am 11:53 Partly Cloudy 91 32.8 74 23.3 57 57 VRB 7 11 30.07 1018 10 16 0.00 0.00
12:25 pm 12:25 Mostly Cloudy with Thunderstorms 90 32.2 74 23.3 59 59 W 9 15 30.04 1017 10 16 0.00 0.00
12:53 pm 12:53 Cloudy with Thunderstorms 75 23.9 65 18.3 71 71 SW 7 11 30.06 1018 10 16 0.35 8.89
1:28 pm 13:28 Partly Cloudy with Nearby Thunderstorms 76 24.4 71 21.7 85 85 E 5 7 30.05 1018 10 16 0.02 0.51
1:53 pm 13:53 Sunny with Nearby Thunderstorms 76 24.4 73 22.8 91 91 SE 7 11 30.02 1017 10 16 0.02 0.51
2:11 pm 14:11 Sunny 76 24.4 73 22.8 91 91 SE 5 7 30.03 1017 10 16 0.00 0.00
2:53 pm 14:53 Sunny 77 25 72 22.2 85 85 SSE 3 6 30.04 1017 10 16 0.00 0.00
3:53 pm 15:53 Sunny 78 25.6 71 21.7 79 79 S 7 11 30.04 1017 10 16 0.00 0.00
4:53 pm 16:53 Sunny 84 28.9 74 23.3 72 72 SW 8 13 30.03 1017 10 16 0.00 0.00
5:53 pm 17:53 Sunny 85 29.4 72 22.2 65 65 SW 9 15 30.02 1017 10 16 0.00 0.00
6:35 pm 18:35 Mostly Cloudy with Nearby Thunderstorms 82 27.8 73 22.8 74 74 NNE 16 26 30.06 1018 10 16 0.00 0.00
6:53 pm 18:53 Cloudy with Nearby Thunderstorms 77 25 68 20 74 74 NNE 17 28 30.10 1019 10 16 0.00 0.00
7:01 pm 19:01 Cloudy with Thunderstorms 76 24.4 69 20.6 79 79 N 14 22 30.12 1020 10 16 0.00 0.00
7:16 pm 19:16 Cloudy with Nearby Thunderstorms 74 23.3 70 21.1 88 88 NNW 14 22 30.15 1021 10 16 0.00 0.00
7:46 pm 19:46 Partly Cloudy 74 23.3 70 21.1 88 88 E 5 7 30.10 1019 10 16 0.00 0.03
7:53 pm 19:53 Mostly Sunny 73 22.8 69 20.6 87 87 ESE 6 9 30.10 1019 10 16 0.00 0.03
8:53 pm 20:53 Clear 73 22.8 69 20.6 87 87 SSE 9 15 30.04 1017 10 16 0.00 0.00
9:53 pm 21:53 Clear 72 22.2 69 20.6 91 91 S 13 20 29.99 1016 10 16 0.00 0.00
10:53 pm 22:53 Clear 74 23.3 65 18.3 74 74 S 8 13 29.96 1014 10 16 0.00 0.00
11:53 pm 23:53 Clear 74 23.3 66 18.9 76 76 NNE 5 7 30.00 1016 10 16 0.00 0.00

Powered by AerisWeather